OPS 4682 DEB, 19113

Orbit data source: Space-Track

OPS 4682 DEB, 19113 is space debris in LEO originally from a launch on Sat, 03 Apr 1965 UTC launched from the Air Force Western Test Range (AFWTR). Debris objects in space refer to the collection of defunct objects orbiting the Earth. Examples of debris include non-operational satellites, rocket bodies, and fragments generated from explosions, collisions, or faulty payload assembly.

Loading next visibility...
Identifier
19113, 1965-027AQ
Orbit
LEO
Country
Flag of USUS
Related business
Manufacturer
Unknown
Mission
Spacecraft
Bus & Motor
Unknown
Mass
Unknown
Launch date (UTC)
1965-04-03 (61 years ago)
Launch vehicle
Unknown
Launch site
Air Force Western Test Range (AFWTR)
Object type
Payload
Rocket body
Debris
Shape & HBR
Unknown shape, 0.1 m
Radar Cross Section
Small (<0.1 m²)

Expand to show TLE details & history
Last TLE update: 2 days ago

TLE from 2 days ago
0 OPS 4682 DEB
1 19113U 65027AQ  25339.37889632  .00001206  00000-0  36477-2 0  9991
2 19113  90.2506   9.5323 0032688 218.7727 158.6135 13.06022804609664
Epoch: 2025-12-05T09:05Z
TLE epoch observation values (Epoch: 2025-12-05T09:05:36.642Z)
Latitude
17.5099°
Longitude
158.62912°
Altitude
1,264.096 km
Speed
7.214 km/s
True Right ascension
00h 37m 48s
True Declination
17° 25' 05"
Sunlit
Object was in daylight at epoch
Visualization orbit readout
Latitude
Unknown
Longitude
Unknown
Altitude
Unknown
Speed
Unknown
Apparent Right ascension
Unknown
Apparent Declination
Unknown
Sunlit
N/A
Visualization observer readout
Local Sidereal Time
12:43:20
Azimuth
Unknown
Elevation
Unknown
Doppler factor
Unknown
Orbital elements
Apogee altitude
1,260.586 km
Perigee altitude
1,210.81 km
Semi-major axis
7,613.835 km
Eccentricity
0.00327
Inclination
90.2506°
RAAN
9.5323°
Arg. of periapsis
218.7727°
True anomaly
158.74957°
Mean anomaly
158.6135°
Eccentric anomaly
158.68159°
Mean motion
3.26692 °/min
Orbital period
110.2 mins
BSTAR
0.0036477
Loading maneuver chart data...
Computing Atmospheric mass density...
Loading historical data...
Loading historical data...
Loading historical data...
Loading historical data...
Loading historical data...
Loading historical data...
Loading historical data...

Documentation

Showing up to 5 results
|